Location: downtown San Diego
(32.7310°N, 117.1990°W)
Time: 17:29:39
(UTC-07:00)

SL-08 R/B - Pass Details

Date: 19 May 2017
Orbit: 948 x 992 km, 83.0° (Epoch: 25 July)

Event Time Altitude Azimuth Distance (km) Brightness Sun altitude
Rises 20:09:42 0° 354° (N) 3,623 8.0 -5.7°
Reaches altitude 10° 20:12:11 10° 356° (N) 2,677 7.3 -6.2°
Maximum altitude 20:18:19 85° 84° (E) 961 4.5 -7.3°
Drops below altitude 10° 20:24:27 10° 173° (S) 2,682 6.5 -8.4°
Sets 20:26:57 0° 174° (S) 3,631 7.1 -8.9°
